Location: Buckeye Ditch
(40.9104°N, 122.9517°W)
Time: 14:56:47
(UTC+00:00)

A-11 Canister half - Pass Details

Date: 22 May 2025
Orbit: 1515 x 1684 km, 47.2° (Epoch: 14 June)

Event Time Altitude Azimuth Distance (km) Brightness Sun altitude
Rises 11:14:07 0° 290° (WNW) 4,706 11.3 -15.0°
Reaches altitude 10° 11:17:14 10° 293° (WNW) 3,707 10.8 -14.6°
Maximum altitude 11:26:31 68° 16° (NNE) 1,614 9.3 -13.3°
Drops below altitude 10° 11:35:44 10° 99° (E) 3,678 11.6 -12.0°
Sets 11:38:49 0° 102° (ESE) 4,668 12.1 -11.6°
